TAP1335 EGKK-LPPT

Flight info

Callsign TAP1335
Flight time 2h 20m
Altitude 35000
Route NOVMA L620 SAM M195 LORKU DCT POZOF/N0446F390 DCT BALDA DCT ABUPI DCT XAMAX
Aircraft A20N/M-SDE2E3FGHIRWXY/LB1

Departure

Time 2026-04-16 09:26
Airport London Gatwick Airport (EGKK)

Arrival

Time 2026-04-16 11:46
Airport Lisbon Humberto Delgado Airport (LPPT)
Time Latitude Longitude Altitude Speed Heading
2026-04-16 08:46 51.15476 -0.16965 208 ft 0 kts 348°
2026-04-16 08:47 51.15476 -0.16964 208 ft 0 kts 348°
2026-04-16 08:58 51.15475 -0.16964 205 ft 0 kts 348°
2026-04-16 09:15 51.15453 -0.16960 211 ft 4 kts 12°
2026-04-16 09:15 51.15432 -0.16978 216 ft 4 kts 59°
2026-04-16 09:15 51.15426 -0.17000 210 ft 1 kts 77°
2026-04-16 09:16 51.15425 -0.17003 209 ft 0 kts 77°
2026-04-16 09:21 51.15429 -0.16982 214 ft 5 kts 77°
2026-04-16 09:21 51.15439 -0.16905 207 ft 9 kts 78°
2026-04-16 09:21 51.15452 -0.16804 214 ft 12 kts 84°
2026-04-16 09:21 51.15384 -0.16709 217 ft 14 kts 167°
2026-04-16 09:22 51.15295 -0.16672 212 ft 9 kts 168°
2026-04-16 09:22 51.15278 -0.16666 217 ft 0 kts 168°
2026-04-16 09:23 51.15249 -0.16656 210 ft 7 kts 166°
2026-04-16 09:24 51.15193 -0.16636 211 ft 12 kts 174°
2026-04-16 09:24 51.15135 -0.16714 210 ft 1 kts 256°
2026-04-16 09:25 51.15134 -0.16719 211 ft 2 kts 256°
2026-04-16 09:25 51.15131 -0.16738 207 ft 2 kts 256°
2026-04-16 09:25 51.15102 -0.16938 214 ft 47 kts 257°
2026-04-16 09:25 51.14986 -0.17800 219 ft 109 kts 259°
2026-04-16 09:26 51.14766 -0.19246 256 ft 154 kts 251°
2026-04-16 09:26 51.14493 -0.20892 879 ft 151 kts 255°
2026-04-16 09:26 51.14254 -0.22477 1644 ft 146 kts 252°
2026-04-16 09:26 51.13930 -0.24136 1983 ft 169 kts 250°
2026-04-16 09:27 51.13521 -0.26040 2362 ft 192 kts 250°
2026-04-16 09:27 51.13050 -0.28226 2677 ft 225 kts 251°
2026-04-16 09:27 51.12538 -0.30676 3440 ft 237 kts 251°
2026-04-16 09:27 51.12200 -0.32346 4073 ft 239 kts 251°
2026-04-16 09:28 51.11530 -0.35717 5322 ft 244 kts 252°
2026-04-16 09:28 51.11019 -0.38324 6175 ft 248 kts 252°
2026-04-16 09:28 51.10678 -0.40066 6762 ft 250 kts 252°
2026-04-16 09:28 51.10157 -0.42723 7613 ft 252 kts 252°
2026-04-16 09:29 51.09628 -0.45417 8497 ft 256 kts 252°
2026-04-16 09:29 51.09092 -0.48138 9348 ft 260 kts 252°
2026-04-16 09:29 51.08551 -0.50877 9944 ft 263 kts 252°
2026-04-16 09:29 51.07995 -0.53687 10452 ft 274 kts 252°
2026-04-16 09:30 51.07398 -0.56695 10779 ft 296 kts 252°
2026-04-16 09:30 51.06754 -0.59932 11124 ft 317 kts 252°
2026-04-16 09:30 51.06223 -0.62601 11443 ft 330 kts 252°
2026-04-16 09:30 51.05568 -0.65887 12032 ft 338 kts 252°
2026-04-16 09:31 51.04860 -0.69433 12714 ft 344 kts 253°
2026-04-16 09:31 51.04134 -0.73075 13080 ft 345 kts 253°
2026-04-16 09:31 51.03520 -0.76780 13149 ft 347 kts 256°
2026-04-16 09:31 51.02964 -0.80517 13150 ft 348 kts 257°
2026-04-16 09:32 51.02437 -0.84277 13277 ft 350 kts 258°
2026-04-16 09:32 51.01920 -0.88085 13995 ft 353 kts 258°
2026-04-16 09:32 51.01413 -0.91860 14664 ft 353 kts 258°
2026-04-16 09:32 51.00899 -0.95685 15045 ft 353 kts 258°
2026-04-16 09:33 51.00382 -0.99502 15147 ft 354 kts 258°
2026-04-16 09:33 50.99860 -1.03329 15153 ft 354 kts 258°
2026-04-16 09:33 50.99336 -1.07150 15154 ft 355 kts 258°
2026-04-16 09:33 50.98807 -1.10987 15152 ft 355 kts 258°
2026-04-16 09:34 50.98282 -1.14776 15206 ft 356 kts 258°
2026-04-16 09:34 50.97746 -1.18633 15749 ft 359 kts 258°
2026-04-16 09:34 50.97207 -1.22507 16590 ft 360 kts 257°
2026-04-16 09:34 50.96575 -1.26358 17390 ft 361 kts 253°
2026-04-16 09:35 50.95657 -1.30090 18133 ft 365 kts 245°
2026-04-16 09:35 50.94386 -1.33612 18804 ft 370 kts 237°
2026-04-16 09:35 50.92743 -1.36789 19377 ft 376 kts 228°
2026-04-16 09:35 50.90778 -1.39497 19979 ft 381 kts 221°
2026-04-16 09:36 50.88614 -1.41985 20580 ft 386 kts 218°
2026-04-16 09:36 50.86361 -1.44354 21122 ft 390 kts 217°
2026-04-16 09:36 50.84055 -1.46685 21652 ft 395 kts 216°
2026-04-16 09:36 50.81724 -1.49019 22223 ft 397 kts 216°
2026-04-16 09:37 50.79403 -1.51355 22795 ft 400 kts 217°
2026-04-16 09:37 50.77040 -1.53753 23351 ft 403 kts 217°
2026-04-16 09:37 50.74675 -1.56174 23865 ft 406 kts 217°
2026-04-16 09:37 50.72298 -1.58619 24316 ft 408 kts 218°
2026-04-16 09:38 50.69907 -1.61084 24780 ft 410 kts 218°
2026-04-16 09:38 50.67515 -1.63551 25238 ft 412 kts 218°
2026-04-16 09:38 50.65107 -1.66032 25673 ft 414 kts 218°
2026-04-16 09:38 50.62687 -1.68522 26102 ft 417 kts 218°
2026-04-16 09:39 50.60249 -1.71028 26470 ft 420 kts 218°
2026-04-16 09:39 50.57789 -1.73552 26904 ft 422 kts 218°
2026-04-16 09:39 50.55352 -1.76047 27305 ft 424 kts 219°
2026-04-16 09:39 50.52874 -1.78581 27716 ft 426 kts 219°
2026-04-16 09:40 50.50374 -1.81134 28104 ft 428 kts 219°
2026-04-16 09:40 50.47870 -1.83687 28555 ft 428 kts 219°
2026-04-16 09:40 50.45379 -1.86220 29151 ft 425 kts 219°
2026-04-16 09:40 50.42931 -1.88703 29770 ft 421 kts 219°
2026-04-16 09:41 50.40478 -1.91191 30296 ft 419 kts 220°
2026-04-16 09:41 50.38025 -1.93679 30658 ft 419 kts 220°
2026-04-16 09:41 50.35574 -1.96166 31056 ft 418 kts 220°
2026-04-16 09:41 50.33133 -1.98637 31476 ft 416 kts 220°
2026-04-16 09:42 50.30741 -2.01055 31900 ft 414 kts 220°
2026-04-16 09:42 50.28331 -2.03488 32316 ft 412 kts 220°
2026-04-16 09:42 50.25928 -2.05911 32712 ft 410 kts 220°
2026-04-16 09:42 50.23529 -2.08308 33096 ft 409 kts 219°
2026-04-16 09:43 50.21126 -2.10673 33479 ft 407 kts 219°
2026-04-16 09:43 50.18724 -2.13014 33855 ft 406 kts 219°
2026-04-16 09:43 50.16323 -2.15345 34169 ft 405 kts 219°
2026-04-16 09:43 50.13946 -2.17652 34366 ft 406 kts 219°
2026-04-16 09:44 50.11542 -2.19983 34627 ft 406 kts 219°
2026-04-16 09:44 50.09144 -2.22306 34906 ft 405 kts 219°
2026-04-16 09:44 50.06782 -2.24594 35132 ft 405 kts 219°
2026-04-16 09:45 50.01972 -2.29250 35200 ft 406 kts 218°
2026-04-16 09:45 49.97193 -2.33860 35189 ft 403 kts 218°
2026-04-16 09:46 49.92309 -2.38100 35181 ft 408 kts 213°
2026-04-16 09:46 49.87140 -2.41842 35201 ft 410 kts 211°
2026-04-16 09:47 49.81922 -2.45470 35208 ft 411 kts 211°
2026-04-16 09:47 49.76728 -2.49060 35207 ft 410 kts 211°
2026-04-16 09:48 49.71509 -2.52676 35178 ft 410 kts 211°
2026-04-16 09:48 49.66288 -2.56296 35207 ft 411 kts 211°
2026-04-16 09:49 49.61090 -2.59893 35207 ft 412 kts 211°
2026-04-16 09:49 49.55856 -2.63505 35210 ft 412 kts 211°
2026-04-16 09:50 49.50615 -2.67113 35211 ft 412 kts 211°
2026-04-16 09:50 49.45384 -2.70706 35211 ft 411 kts 211°
2026-04-16 09:51 49.40189 -2.74266 35207 ft 411 kts 210°
2026-04-16 09:51 49.34963 -2.77838 35209 ft 411 kts 210°
2026-04-16 09:52 49.29734 -2.81405 35209 ft 411 kts 210°
2026-04-16 09:52 49.24524 -2.84951 35200 ft 411 kts 210°
2026-04-16 09:53 49.19273 -2.88518 35206 ft 412 kts 210°
2026-04-16 09:53 49.14021 -2.92074 35205 ft 412 kts 210°
2026-04-16 09:54 49.08798 -2.95603 35208 ft 412 kts 210°
2026-04-16 09:54 49.03547 -2.99143 35180 ft 412 kts 210°
2026-04-16 09:55 48.98281 -3.02686 35207 ft 414 kts 210°
2026-04-16 09:55 48.93006 -3.06226 35207 ft 414 kts 210°
2026-04-16 09:56 48.87768 -3.09731 35209 ft 412 kts 210°
2026-04-16 09:56 48.82526 -3.13231 35207 ft 411 kts 210°
2026-04-16 09:57 48.77296 -3.16718 35209 ft 411 kts 210°
2026-04-16 09:57 48.72047 -3.20209 35208 ft 411 kts 210°
2026-04-16 09:58 48.66802 -3.23689 35212 ft 411 kts 210°
2026-04-16 09:58 48.61553 -3.27163 35208 ft 411 kts 210°
2026-04-16 09:59 48.56325 -3.30617 35209 ft 412 kts 209°
2026-04-16 09:59 48.51080 -3.34074 35207 ft 413 kts 209°
2026-04-16 10:00 48.45808 -3.37539 35210 ft 413 kts 209°
2026-04-16 10:00 48.40534 -3.40997 35212 ft 413 kts 209°
2026-04-16 10:01 48.32645 -3.46158 35208 ft 413 kts 209°
2026-04-16 10:01 48.27365 -3.49600 35208 ft 412 kts 209°
2026-04-16 10:02 48.22099 -3.53027 35214 ft 412 kts 209°
2026-04-16 10:02 48.16865 -3.56426 35202 ft 412 kts 209°
2026-04-16 10:03 48.11591 -3.59843 35211 ft 413 kts 208°
2026-04-16 10:03 48.06310 -3.63258 35218 ft 413 kts 208°
2026-04-16 10:04 48.01050 -3.66649 35217 ft 413 kts 208°
2026-04-16 10:04 47.95764 -3.70050 35218 ft 413 kts 208°
2026-04-16 10:05 47.90502 -3.73430 35217 ft 414 kts 208°
2026-04-16 10:05 47.85195 -3.76830 35230 ft 414 kts 208°
2026-04-16 10:06 47.79896 -3.80216 35231 ft 414 kts 208°
2026-04-16 10:06 47.74601 -3.83592 35226 ft 413 kts 208°
2026-04-16 10:07 47.69315 -3.86956 35223 ft 413 kts 208°
2026-04-16 10:07 47.64019 -3.90320 35237 ft 414 kts 208°
2026-04-16 10:08 47.58724 -3.93674 35231 ft 414 kts 208°
2026-04-16 10:08 47.53456 -3.97005 35227 ft 414 kts 208°
2026-04-16 10:09 47.48149 -4.00353 35236 ft 415 kts 207°
2026-04-16 10:09 47.42827 -4.03703 35236 ft 415 kts 207°
2026-04-16 10:10 47.37533 -4.07026 35236 ft 415 kts 207°
2026-04-16 10:10 47.32205 -4.10365 35235 ft 415 kts 207°
2026-04-16 10:11 47.26886 -4.13691 35335 ft 416 kts 207°
2026-04-16 10:11 47.24253 -4.15336 35616 ft 415 kts 207°
2026-04-16 10:11 47.21603 -4.16987 35952 ft 412 kts 207°
2026-04-16 10:12 47.18958 -4.18633 36215 ft 411 kts 207°
2026-04-16 10:12 47.16323 -4.20272 36434 ft 411 kts 207°
2026-04-16 10:12 47.14571 -4.21361 36574 ft 411 kts 207°
2026-04-16 10:12 47.11937 -4.22997 36795 ft 411 kts 207°
2026-04-16 10:13 47.08450 -4.25161 37043 ft 410 kts 207°
2026-04-16 10:13 47.06667 -4.26260 37169 ft 411 kts 206°
2026-04-16 10:13 47.04011 -4.27816 37376 ft 411 kts 205°
2026-04-16 10:13 47.01337 -4.29308 37586 ft 411 kts 204°
2026-04-16 10:14 46.98657 -4.30767 37790 ft 410 kts 204°
2026-04-16 10:14 46.96009 -4.32197 37982 ft 410 kts 204°
2026-04-16 10:14 46.93333 -4.33643 38174 ft 409 kts 204°
2026-04-16 10:14 46.90661 -4.35090 38363 ft 409 kts 204°
2026-04-16 10:15 46.87993 -4.36540 38520 ft 409 kts 204°
2026-04-16 10:15 46.85327 -4.37993 38678 ft 409 kts 204°
2026-04-16 10:15 46.82659 -4.39448 38848 ft 408 kts 204°
2026-04-16 10:15 46.79997 -4.40899 38999 ft 408 kts 204°
2026-04-16 10:16 46.77337 -4.42348 39103 ft 408 kts 204°
2026-04-16 10:16 46.74670 -4.43800 39196 ft 408 kts 204°
2026-04-16 10:16 46.69338 -4.46698 39252 ft 410 kts 204°
2026-04-16 10:17 46.64019 -4.49580 39251 ft 409 kts 204°
2026-04-16 10:17 46.58680 -4.52466 39252 ft 409 kts 204°
2026-04-16 10:18 46.53329 -4.55353 39249 ft 409 kts 204°
2026-04-16 10:18 46.47978 -4.58235 39249 ft 409 kts 204°
2026-04-16 10:19 46.42657 -4.61094 39253 ft 409 kts 204°
2026-04-16 10:19 46.37312 -4.63961 39256 ft 409 kts 204°
2026-04-16 10:20 46.31986 -4.66810 39253 ft 409 kts 204°
2026-04-16 10:20 46.26627 -4.69672 39238 ft 409 kts 204°
2026-04-16 10:21 46.21283 -4.72520 39254 ft 409 kts 204°
2026-04-16 10:21 46.15947 -4.75358 39254 ft 410 kts 204°
2026-04-16 10:22 46.10586 -4.78203 39259 ft 409 kts 204°
2026-04-16 10:22 46.05274 -4.81016 39248 ft 408 kts 204°
2026-04-16 10:23 45.99926 -4.83842 39254 ft 408 kts 204°
2026-04-16 10:23 45.94582 -4.86661 39254 ft 408 kts 203°
2026-04-16 10:24 45.89278 -4.89452 39257 ft 408 kts 203°
2026-04-16 10:24 45.83932 -4.92260 39254 ft 409 kts 203°
2026-04-16 10:25 45.78569 -4.95072 39254 ft 409 kts 203°
2026-04-16 10:25 45.73236 -4.97861 39255 ft 409 kts 203°
2026-04-16 10:26 45.67883 -5.00655 39257 ft 409 kts 203°
2026-04-16 10:26 45.62525 -5.03447 39254 ft 410 kts 203°
2026-04-16 10:27 45.57182 -5.06225 39250 ft 410 kts 203°
2026-04-16 10:27 45.51815 -5.09009 39254 ft 409 kts 203°
2026-04-16 10:28 45.46479 -5.11772 39258 ft 409 kts 203°
2026-04-16 10:28 45.41118 -5.14543 39257 ft 410 kts 203°
2026-04-16 10:29 45.35789 -5.17291 39255 ft 410 kts 203°
2026-04-16 10:29 45.30414 -5.20057 39259 ft 410 kts 203°
2026-04-16 10:30 45.25049 -5.22813 39245 ft 410 kts 203°
2026-04-16 10:30 45.19667 -5.25572 39251 ft 411 kts 203°
2026-04-16 10:31 45.14324 -5.28306 39257 ft 411 kts 203°
2026-04-16 10:31 45.08933 -5.31058 39254 ft 411 kts 203°
2026-04-16 10:32 45.03544 -5.33804 39251 ft 411 kts 203°
2026-04-16 10:32 44.98179 -5.36532 39263 ft 411 kts 203°
2026-04-16 10:33 44.92788 -5.39267 39253 ft 410 kts 203°
2026-04-16 10:33 44.87410 -5.41991 39255 ft 410 kts 203°
2026-04-16 10:34 44.82016 -5.44718 39253 ft 413 kts 203°
2026-04-16 10:34 44.76631 -5.47436 39254 ft 414 kts 203°
2026-04-16 10:35 44.71199 -5.50170 39254 ft 414 kts 203°
2026-04-16 10:35 44.65802 -5.52881 39254 ft 414 kts 203°
2026-04-16 10:36 44.60392 -5.55641 39254 ft 413 kts 205°
2026-04-16 10:36 44.55097 -5.58800 39251 ft 412 kts 207°
2026-04-16 10:37 44.49904 -5.62082 39249 ft 412 kts 207°
2026-04-16 10:37 44.44662 -5.65372 39249 ft 412 kts 207°
2026-04-16 10:38 44.39404 -5.68626 39252 ft 413 kts 207°
2026-04-16 10:38 44.34166 -5.71843 39255 ft 413 kts 207°
2026-04-16 10:39 44.28888 -5.75076 39246 ft 413 kts 207°
2026-04-16 10:39 44.23648 -5.78281 39245 ft 414 kts 207°
2026-04-16 10:40 44.18367 -5.81507 39247 ft 415 kts 207°
2026-04-16 10:40 44.13072 -5.84734 39244 ft 415 kts 207°
2026-04-16 10:41 44.07776 -5.87956 39246 ft 415 kts 207°
2026-04-16 10:41 44.02511 -5.91152 39244 ft 415 kts 207°
2026-04-16 10:42 43.97211 -5.94364 39241 ft 416 kts 207°
2026-04-16 10:42 43.91903 -5.97575 39241 ft 416 kts 207°
2026-04-16 10:43 43.86588 -6.00783 39220 ft 416 kts 207°
2026-04-16 10:43 43.81300 -6.03969 39236 ft 417 kts 207°
2026-04-16 10:44 43.75968 -6.07175 39236 ft 418 kts 207°
2026-04-16 10:44 43.70632 -6.10376 39231 ft 417 kts 207°
2026-04-16 10:45 43.65302 -6.13568 39212 ft 417 kts 207°
2026-04-16 10:45 43.59956 -6.16765 39221 ft 418 kts 207°
2026-04-16 10:46 43.54613 -6.19952 39236 ft 418 kts 207°
2026-04-16 10:46 43.49295 -6.23119 39232 ft 418 kts 207°
2026-04-16 10:47 43.43939 -6.26301 39221 ft 419 kts 208°
2026-04-16 10:47 43.38602 -6.29468 39220 ft 419 kts 208°
2026-04-16 10:48 43.33226 -6.32650 39207 ft 420 kts 208°
2026-04-16 10:48 43.27848 -6.35830 39195 ft 420 kts 208°
2026-04-16 10:49 43.22499 -6.38983 39196 ft 421 kts 208°
2026-04-16 10:49 43.17115 -6.42153 39195 ft 421 kts 208°
2026-04-16 10:50 43.11711 -6.45327 39187 ft 421 kts 208°
2026-04-16 10:50 43.06393 -6.48445 39189 ft 421 kts 208°
2026-04-16 10:51 43.00995 -6.51607 39183 ft 421 kts 208°
2026-04-16 10:51 42.95625 -6.54750 39188 ft 422 kts 208°
2026-04-16 10:52 42.90224 -6.57893 39193 ft 422 kts 208°
2026-04-16 10:52 42.84812 -6.61040 39198 ft 423 kts 208°
2026-04-16 10:53 42.79391 -6.64189 39193 ft 423 kts 208°
2026-04-16 10:53 42.73965 -6.67332 39182 ft 423 kts 208°
2026-04-16 10:54 42.68569 -6.70455 39189 ft 424 kts 208°
2026-04-16 10:54 42.63130 -6.73596 39180 ft 423 kts 208°
2026-04-16 10:55 42.57733 -6.76706 39186 ft 423 kts 208°
2026-04-16 10:55 42.52305 -6.79828 39192 ft 423 kts 208°
2026-04-16 10:56 42.46866 -6.82951 39187 ft 424 kts 208°
2026-04-16 10:56 42.41473 -6.86052 39189 ft 422 kts 210°
2026-04-16 10:57 42.36261 -6.89635 39189 ft 419 kts 213°
2026-04-16 10:57 42.31125 -6.93387 39188 ft 419 kts 213°
2026-04-16 10:58 42.26021 -6.97119 39191 ft 419 kts 213°
2026-04-16 10:58 42.21742 -7.00242 39193 ft 419 kts 213°
2026-04-16 10:59 42.16600 -7.03986 39188 ft 419 kts 213°
2026-04-16 10:59 42.11484 -7.07706 39197 ft 420 kts 213°
2026-04-16 11:00 42.06330 -7.11443 39196 ft 420 kts 213°
2026-04-16 11:00 42.01185 -7.15170 39202 ft 420 kts 213°
2026-04-16 11:01 41.96037 -7.18891 39191 ft 420 kts 213°
2026-04-16 11:01 41.90905 -7.22595 39205 ft 420 kts 213°
2026-04-16 11:02 41.85740 -7.26314 39204 ft 419 kts 213°
2026-04-16 11:02 41.80626 -7.29990 39204 ft 419 kts 213°
2026-04-16 11:03 41.75478 -7.33683 39205 ft 419 kts 213°
2026-04-16 11:04 41.67794 -7.39184 39205 ft 418 kts 213°
2026-04-16 11:04 41.62648 -7.42860 39209 ft 418 kts 213°
2026-04-16 11:05 41.57501 -7.46530 39205 ft 418 kts 213°
2026-04-16 11:05 41.52392 -7.50166 39196 ft 418 kts 212°
2026-04-16 11:06 41.47242 -7.53825 39206 ft 419 kts 212°
2026-04-16 11:06 41.42095 -7.57474 39213 ft 419 kts 212°
2026-04-16 11:07 41.36946 -7.61118 39206 ft 418 kts 212°
2026-04-16 11:07 41.31829 -7.64733 39208 ft 417 kts 212°
2026-04-16 11:08 41.26703 -7.68349 39157 ft 416 kts 212°
2026-04-16 11:08 41.24142 -7.70152 38705 ft 414 kts 212°
2026-04-16 11:08 41.21637 -7.71913 38129 ft 413 kts 212°
2026-04-16 11:08 41.19085 -7.73709 37472 ft 414 kts 212°
2026-04-16 11:09 41.16523 -7.75510 36784 ft 417 kts 212°
2026-04-16 11:09 41.13975 -7.77299 36107 ft 419 kts 212°
2026-04-16 11:09 41.11388 -7.79113 35402 ft 422 kts 212°
2026-04-16 11:09 41.08779 -7.80941 34719 ft 424 kts 211°
2026-04-16 11:10 41.06153 -7.82781 33936 ft 429 kts 211°
2026-04-16 11:10 41.03500 -7.84636 33143 ft 432 kts 211°
2026-04-16 11:10 41.00859 -7.86481 32402 ft 434 kts 211°
2026-04-16 11:10 40.98180 -7.88351 31674 ft 436 kts 211°
2026-04-16 11:11 40.95477 -7.90236 30938 ft 438 kts 211°
2026-04-16 11:11 40.92762 -7.92127 30194 ft 440 kts 211°
2026-04-16 11:11 40.90065 -7.94004 29336 ft 443 kts 211°
2026-04-16 11:11 40.87329 -7.95906 28496 ft 444 kts 211°
2026-04-16 11:12 40.84589 -7.97811 27642 ft 446 kts 210°
2026-04-16 11:12 40.81830 -7.99726 26772 ft 448 kts 210°
2026-04-16 11:12 40.79062 -8.01645 25972 ft 450 kts 210°
2026-04-16 11:12 40.76280 -8.03572 25454 ft 453 kts 210°
2026-04-16 11:13 40.73519 -8.05483 24797 ft 452 kts 210°
2026-04-16 11:13 40.70736 -8.07406 24282 ft 446 kts 210°
2026-04-16 11:13 40.67994 -8.09299 23963 ft 443 kts 210°
2026-04-16 11:13 40.65261 -8.11186 23658 ft 443 kts 210°
2026-04-16 11:14 40.62564 -8.13045 23301 ft 441 kts 209°
2026-04-16 11:14 40.59853 -8.14913 22930 ft 439 kts 209°
2026-04-16 11:14 40.57141 -8.16774 22582 ft 438 kts 208°
2026-04-16 11:14 40.54349 -8.18359 22246 ft 433 kts 202°
2026-04-16 11:15 40.51548 -8.19669 21922 ft 420 kts 200°
2026-04-16 11:15 40.48812 -8.20860 21636 ft 408 kts 200°
2026-04-16 11:15 40.46185 -8.22237 21360 ft 411 kts 207°
2026-04-16 11:15 40.43598 -8.23975 21096 ft 422 kts 210°
2026-04-16 11:16 40.41005 -8.25818 20826 ft 424 kts 210°
2026-04-16 11:16 40.38452 -8.27665 20557 ft 423 kts 210°
2026-04-16 11:16 40.35866 -8.29551 20288 ft 422 kts 211°
2026-04-16 11:16 40.33303 -8.31424 20022 ft 420 kts 211°
2026-04-16 11:17 40.30758 -8.33286 19757 ft 418 kts 211°
2026-04-16 11:17 40.28253 -8.35121 19507 ft 416 kts 210°
2026-04-16 11:17 40.25731 -8.36966 19245 ft 414 kts 210°
2026-04-16 11:17 40.23214 -8.38807 18960 ft 413 kts 210°
2026-04-16 11:18 40.20715 -8.40633 18692 ft 411 kts 210°
2026-04-16 11:18 40.18227 -8.42450 18412 ft 409 kts 210°
2026-04-16 11:18 40.15738 -8.44267 18073 ft 407 kts 210°
2026-04-16 11:18 40.13259 -8.46074 17758 ft 406 kts 210°
2026-04-16 11:19 40.10793 -8.47871 17447 ft 405 kts 210°
2026-04-16 11:19 40.08335 -8.49660 17136 ft 403 kts 210°
2026-04-16 11:19 40.05886 -8.51441 16822 ft 402 kts 210°
2026-04-16 11:19 40.03479 -8.53190 16537 ft 400 kts 210°
2026-04-16 11:20 40.01041 -8.54961 16237 ft 399 kts 210°
2026-04-16 11:20 39.98614 -8.56721 15938 ft 397 kts 210°
2026-04-16 11:20 39.96201 -8.58471 15643 ft 396 kts 210°
2026-04-16 11:20 39.93820 -8.60195 15357 ft 394 kts 210°
2026-04-16 11:21 39.91412 -8.61938 15063 ft 393 kts 210°
2026-04-16 11:21 39.89021 -8.63667 14778 ft 392 kts 210°
2026-04-16 11:21 39.86631 -8.65394 14498 ft 391 kts 210°
2026-04-16 11:21 39.84249 -8.67115 14230 ft 390 kts 210°
2026-04-16 11:22 39.81879 -8.68824 13884 ft 388 kts 210°
2026-04-16 11:22 39.79519 -8.70525 13494 ft 387 kts 210°
2026-04-16 11:22 39.77201 -8.72195 13114 ft 385 kts 210°
2026-04-16 11:22 39.74861 -8.73878 12731 ft 382 kts 210°
2026-04-16 11:23 39.72536 -8.75551 12356 ft 380 kts 209°
2026-04-16 11:23 39.70223 -8.77213 11975 ft 378 kts 210°
2026-04-16 11:23 39.67924 -8.78864 11603 ft 376 kts 209°
2026-04-16 11:23 39.65637 -8.80505 11240 ft 374 kts 209°
2026-04-16 11:24 39.63395 -8.82112 11079 ft 357 kts 209°
2026-04-16 11:24 39.61306 -8.83609 11014 ft 335 kts 209°
2026-04-16 11:24 39.59328 -8.85024 10841 ft 313 kts 209°
2026-04-16 11:24 39.57475 -8.86350 10685 ft 296 kts 209°
2026-04-16 11:25 39.55690 -8.87627 10415 ft 290 kts 209°
2026-04-16 11:25 39.53940 -8.88878 10135 ft 285 kts 209°
2026-04-16 11:25 39.52210 -8.90114 9849 ft 282 kts 209°
2026-04-16 11:25 39.50517 -8.91323 9563 ft 282 kts 209°
2026-04-16 11:26 39.48796 -8.92551 9291 ft 281 kts 209°
2026-04-16 11:26 39.47086 -8.93770 9032 ft 280 kts 209°
2026-04-16 11:26 39.45379 -8.94986 8804 ft 279 kts 209°
2026-04-16 11:26 39.43685 -8.96193 8580 ft 277 kts 209°
2026-04-16 11:27 39.41998 -8.97393 8357 ft 276 kts 209°
2026-04-16 11:27 39.40328 -8.98582 8243 ft 282 kts 209°
2026-04-16 11:27 39.38533 -8.99859 8239 ft 303 kts 209°
2026-04-16 11:27 39.36657 -9.01193 8227 ft 309 kts 209°
2026-04-16 11:28 39.34765 -9.02536 8230 ft 310 kts 209°
2026-04-16 11:28 39.32867 -9.03883 8227 ft 311 kts 209°
2026-04-16 11:28 39.30967 -9.05230 8225 ft 312 kts 209°
2026-04-16 11:28 39.29091 -9.06560 8224 ft 311 kts 209°
2026-04-16 11:29 39.27194 -9.07903 8225 ft 310 kts 209°
2026-04-16 11:29 39.25300 -9.09244 8236 ft 310 kts 209°
2026-04-16 11:29 39.23406 -9.10583 8230 ft 310 kts 209°
2026-04-16 11:29 39.21516 -9.11919 8224 ft 310 kts 209°
2026-04-16 11:30 39.19625 -9.13256 8234 ft 309 kts 209°
2026-04-16 11:30 39.17737 -9.14587 8226 ft 309 kts 209°
2026-04-16 11:30 39.15847 -9.15921 8230 ft 310 kts 209°
2026-04-16 11:30 39.13972 -9.17243 8223 ft 310 kts 209°
2026-04-16 11:31 39.12080 -9.18577 8224 ft 310 kts 209°
2026-04-16 11:31 39.10190 -9.19909 8215 ft 309 kts 209°
2026-04-16 11:31 39.08296 -9.21242 8220 ft 310 kts 209°
2026-04-16 11:31 39.06400 -9.22575 8226 ft 311 kts 209°
2026-04-16 11:32 39.04503 -9.23910 8233 ft 310 kts 209°
2026-04-16 11:32 39.02612 -9.25238 8229 ft 308 kts 209°
2026-04-16 11:32 39.00746 -9.26549 8232 ft 309 kts 209°
2026-04-16 11:32 38.98853 -9.27879 8232 ft 310 kts 209°
2026-04-16 11:33 38.96958 -9.29209 8231 ft 310 kts 209°
2026-04-16 11:33 38.95063 -9.30539 8235 ft 309 kts 209°
2026-04-16 11:33 38.93172 -9.31863 8243 ft 310 kts 209°
2026-04-16 11:33 38.91273 -9.33193 8242 ft 311 kts 209°
2026-04-16 11:34 38.89373 -9.34523 8235 ft 310 kts 209°
2026-04-16 11:34 38.87471 -9.35853 8237 ft 310 kts 209°
2026-04-16 11:34 38.85594 -9.37164 8234 ft 310 kts 209°
2026-04-16 11:34 38.83699 -9.38487 8219 ft 310 kts 209°
2026-04-16 11:35 38.81792 -9.39818 8234 ft 311 kts 209°
2026-04-16 11:35 38.79886 -9.41149 8226 ft 310 kts 209°
2026-04-16 11:35 38.78022 -9.42448 8224 ft 309 kts 209°
2026-04-16 11:35 38.76135 -9.43762 8221 ft 308 kts 209°
2026-04-16 11:36 38.74250 -9.45077 8224 ft 308 kts 209°
2026-04-16 11:36 38.72358 -9.46394 8228 ft 310 kts 209°
2026-04-16 11:36 38.70467 -9.47710 8225 ft 307 kts 209°
2026-04-16 11:36 38.68590 -9.49014 8224 ft 307 kts 209°
2026-04-16 11:37 38.66753 -9.50288 8216 ft 290 kts 209°
2026-04-16 11:37 38.65035 -9.51479 8216 ft 272 kts 208°
2026-04-16 11:37 38.63415 -9.52603 8108 ft 259 kts 209°
2026-04-16 11:37 38.61842 -9.53561 7974 ft 248 kts 200°
2026-04-16 11:38 38.60182 -9.53997 7781 ft 242 kts 183°
2026-04-16 11:38 38.58540 -9.53695 7607 ft 237 kts 162°
2026-04-16 11:38 38.57115 -9.52609 7193 ft 243 kts 137°
2026-04-16 11:38 38.56173 -9.50779 6793 ft 251 kts 110°
2026-04-16 11:39 38.56002 -9.48638 6553 ft 245 kts 82°
2026-04-16 11:39 38.56470 -9.46561 6155 ft 242 kts 72°
2026-04-16 11:39 38.57067 -9.44563 5742 ft 238 kts 70°
2026-04-16 11:39 38.57677 -9.42575 5362 ft 243 kts 70°
2026-04-16 11:40 38.58292 -9.40542 4977 ft 246 kts 70°
2026-04-16 11:40 38.58900 -9.38504 4575 ft 244 kts 71°
2026-04-16 11:40 38.59492 -9.36506 4170 ft 241 kts 71°
2026-04-16 11:40 38.60080 -9.34516 3782 ft 237 kts 70°
2026-04-16 11:41 38.60655 -9.32562 3387 ft 233 kts 69°
2026-04-16 11:41 38.61222 -9.30633 3070 ft 229 kts 69°
2026-04-16 11:41 38.61781 -9.28731 3001 ft 226 kts 69°
2026-04-16 11:41 38.62309 -9.26934 2978 ft 205 kts 69°
2026-04-16 11:42 38.62782 -9.25326 2970 ft 182 kts 69°
2026-04-16 11:42 38.63198 -9.23903 2986 ft 164 kts 69°
2026-04-16 11:42 38.63596 -9.22561 3056 ft 164 kts 67°
2026-04-16 11:42 38.64247 -9.21365 2987 ft 165 kts 44°
2026-04-16 11:43 38.65204 -9.20536 2805 ft 167 kts 27°
2026-04-16 11:43 38.66265 -9.19931 2578 ft 167 kts 23°
2026-04-16 11:43 38.67307 -9.19380 2358 ft 161 kts 25°
2026-04-16 11:43 38.68327 -9.18830 2129 ft 157 kts 23°
2026-04-16 11:44 38.69341 -9.18291 1912 ft 157 kts 23°
2026-04-16 11:44 38.70010 -9.17933 1792 ft 157 kts 25°
2026-04-16 11:44 38.71330 -9.17226 1471 ft 149 kts 23°
2026-04-16 11:44 38.72238 -9.16743 1298 ft 135 kts 21°
2026-04-16 11:45 38.73094 -9.16288 1123 ft 132 kts 23°
2026-04-16 11:45 38.73664 -9.15983 1011 ft 131 kts 23°
2026-04-16 11:45 38.74501 -9.15536 840 ft 131 kts 25°
2026-04-16 11:45 38.75333 -9.15090 657 ft 131 kts 25°
2026-04-16 11:46 38.76169 -9.14650 455 ft 129 kts 26°
2026-04-16 11:46 38.77003 -9.14197 364 ft 129 kts 28°
2026-04-16 11:46 38.77742 -9.13796 367 ft 103 kts 21°
2026-04-16 11:46 38.78205 -9.13531 369 ft 35 kts 40°
2026-04-16 11:47 38.78365 -9.13354 368 ft 20 kts 58°
2026-04-16 11:47 38.78311 -9.13280 364 ft 14 kts 180°
2026-04-16 11:47 38.78215 -9.13317 362 ft 15 kts 202°
2026-04-16 11:47 38.78120 -9.13371 365 ft 15 kts 203°
2026-04-16 11:48 38.78020 -9.13410 365 ft 16 kts 177°
2026-04-16 11:48 38.77895 -9.13385 353 ft 20 kts 165°
2026-04-16 11:48 38.77779 -9.13345 352 ft 19 kts 166°
2026-04-16 11:48 38.77633 -9.13319 337 ft 22 kts 177°
2026-04-16 11:49 38.77497 -9.13297 337 ft 17 kts 169°
2026-04-16 11:49 38.77417 -9.13239 339 ft 11 kts 95°
2026-04-16 11:49 38.77424 -9.13171 337 ft 6 kts 78°
2026-04-16 11:49 38.77429 -9.13142 339 ft 0 kts 76°